(464389) = 2006 DL209 = 2016 BS2

Discovered at Kitt Peak on 2006-02-27 by Spacewatch.

Orbit

Orbit type: Main Belt

Note: WebGL enabled browser required.

epoch2023-02-25.0
epoch JD2460000.5
perihelion date2019-12-03.55020
perihelion JD2458821.05020
argument of perihelion (°)50.98873
ascending node (°)151.58645
inclination (°)5.07087
eccentricity0.1046672
perihelion distance (AU)2.0180678
Tisserand w.r.t. Jupiter3.6
ΔV w.r.t. Earth (km/sec)8.9
semimajor axis (AU)2.2539861
mean anomaly (°)343.52349
mean daily motion (°/day)0.29125740
aphelion distance (AU)2.490
period (years)3.38
P-vector [x]-0.92192955
P-vector [y]-0.37708200
P-vector [z]-0.08862879
Q-vector [x]0.38506758
Q-vector [y]-0.86732485
Q-vector [z]-0.31538954
absolute magnitude18.06
phase slope0.15
uncertainty0
referenceMPO 745323
observations used151
oppositions10
arc length (days)6327
first opposition used2006
last opposition used2023
residual rms (arc-secs)0.67
perturbers coarse indicatorM-v
perturbers precise indicator003Ek
first observation date used2006-02-27.0
last observation date used2023-06-25.0
computer nameMPCLINUX
Minimum Orbit Intersection Distances (in AU)
for orbit epoch: 2460000.5, reference: E2023-ME7
Mercury1.5822
Venus1.29657
Earth1.02015
Mars0.38232
Jupiter2.46682
Saturn6.68509
Uranus16.3694
Neptune27.3642

Observations

155 total observations over interval: 2006 02 27.39305 – 2023 06 25.224698
These data are available for download (format description).

